STARLINK-34732

Last updated on Tue Aug 26 2025 00:02:06 GMT+0000 (Coordinated Universal Time)

1 64955U 25158Z 25237.60196064 .00047990 00000+0 12228-2 0 9996 2 64955 97.6021 100.2326 0004242 118.6308 241.5364 15.39389984 5817

Satellite not in orbit

STARLINK-34732